Other Surface Observations
Issued by NWS

Home | Current Version | Previous Version | Text Only | Print | Product List | Glossary On
Versions: 1 2 3 4 5 6 7 8 9 10 11 12 13 14 15 16 17 18 19 20 21 22 23 24 25 26 27 28 29 30 31 32 33 34 35 36 37 38 39 40 41 42 43 44 45 46 47 48 49 50
000
SXUS52 KTAE 211818
OSOTAE
OSOTAE
North Florida/South Alabama/Southwest Georgia Weather Roundup
National Weather Service Tallahassee Florida
100 PM EST SUN DEC 21 2014

Note: "fair" indicates few or no clouds below 12,000 feet with no
significant weather and/or obstructions to visibility.

!FLZ017-115-028-034-025-211900
...North Florida...

CITY           SKY/WX    TMP DP  RH WIND       PRES   REMARKS
TALLAHASSEE    CLOUDY    58  54  86 E5        30.07F FOG
APALACHICOLA   LGT RAIN  61  57  87 E6        30.05F
PERRY          CLOUDY    58  57  95 E5        30.06F
CROSS CITY       N/A     61  61 100 NE6       30.06F
JACKSONVILLE   CLOUDY    58  58 100 NE7       30.09F
$$

!FLZ112-006-005-002-011-211900
...Florida Panhandle...

CITY           SKY/WX    TMP DP  RH WIND       PRES   REMARKS
MARIANNA       LGT RAIN  55  55 100 NE9       30.08F FOG
BONIFAY        NOT AVBL
PANAMA CITY NW CLOUDY    56  54  93 NE6       30.06F FOG
TYNDALL AFB    CLOUDY    57  57 100 NE5       30.06F FOG
TYND DRONE APT MOCLDY    57  57 100 NE3       30.04F FOG
DE FUNIAK SPR  CLOUDY    54  53  98 NE7       30.08F FOG
EGLIN AFB      CLOUDY    56  54  92 NE6       30.07F FOG
DESTIN         CLOUDY    57  55  93 NE7       30.07F FOG
HURLBURT       CLOUDY    56  51  83 E7        30.06F
CRESTVIEW      CLOUDY    56  53  90 E6        30.09F FOG
PENSACOLA      CLOUDY    54  53  97 E5        30.06F
$$

!ALZ063-066-211900
...South Alabama...

CITY           SKY/WX    TMP DP  RH WIND       PRES   REMARKS
DOTHAN         CLOUDY    55  52  89 E8        30.12F FOG
OZARK CAIRNS   CLOUDY    56  51  84 NE5       30.09F
FT RUCKER HELI CLOUDY    56  51  84 E5        30.08F
RUCKER HELI 3  CLOUDY    55  52  89 E6        30.11F
RUCKER HELI 2  CLOUDY    55  51  86 E7        30.09F
FLORALA APT    CLOUDY    56  52  86 E8        30.09F FOG
ANDALUSIA      CLOUDY    61  51  70 SE8       30.08F
TROY           CLOUDY    58  49  72 E8        30.10F
EUFALA         CLOUDY    56  50  80 NE6       30.10F
MOBILE         CLOUDY    55  51  86 CALM      30.09F FOG
$$

!GAZ120>161-211900
...Southwest and South Central Georgia...

CITY           SKY/WX    TMP DP  RH WIND       PRES   REMARKS
THOMASVILLE    RAIN      55  55 100 E7        30.09F
BAINBRIDGE     CLOUDY    59  57  94 E6        30.09F FOG
MOODY AFB      CLOUDY    54  52  95 E7        30.08F
VALDOSTA       CLOUDY    55  54  96 E9        30.08F
MOULTRIE       DRIZZLE   54  54 100 NE6       30.09F
BLAKELY        DRIZZLE   55  55 100 E3        30.10F
ALBANY         CLOUDY    53  51  93 NE9       30.12F FOG
TIFTON         LGT RAIN  51  51  99 E8        30.10F
FITZGERALD     CLOUDY    52  50  92 NE6       30.14F FOG
CORDELE        CLOUDY    53  50  90 E7        30.13F
AMERICUS       CLOUDY    52  50  93 NE8       30.13F
HOMERVILLE     LGT RAIN  55  54  94 E6        30.10F
$$

!GMZ750-755-770-775-211900
...Coastal and Buoy Obs...

STATION/POSITION TIME  TEMP    WIND        PRES    VSBY  WAVE
                       AIR SEA DIR/SP/G                  HT/PER
                 (UTC) (F)     (DEG/KT/KT) (MB)    (MI)  (FT/S)
KEATON BEACH     1800   59      70/ 11/ 14 1017.4F
CEDAR KEY        1800   62      80/  8/  9 1017.6F
C TOWER          1800   61      70/ 12/ 13 1016.9F
APALACHICOLA BUO 1800   73 72  100/  2/  2 1015.9F         3/ 5
PANAMA CITY BUOY 1708   68 75   20/ 12/ 14 1016.4          3/ 6
MOBILE BUOY      1800   66 74   70/ 10/ 14 1016.9F         4/ 6
ORANGE BCH AL BU 1800   62 70   90/ 10/ 12 1017.1F         2/ 6
$$



USA.gov is the U.S. government's official web portal to all federal, state and local government web resources and services.